Hourly Data Report for June 14, 2003

TORONTO CITY
ONTARIO

43°40'00.000" N
79°24'00.000" W
112.50 m
6158355
71508
XTO

Download Data

Hourly Data (June 2003)
Hourly Data Report for June 14, 2003
TIME
LST
Temp Definition
°C
Dew Point Definition
°C
Rel Hum Definition
%
Precip. Amount Definition
mm

Wind Dir Definition
10's deg

Wind Spd Definition
km/h
Visibility Definition
km
Stn Press Definition
kPa
Hmdx Definition


Wind Chill Definition


Weather Definition


00:00 16.4 16.3 99   LegendMM LegendMM LegendMM 99.61     LegendNANA
01:00 17.0 16.9 99   LegendMM LegendMM LegendMM 99.61     LegendNANA
02:00 17.0 16.9 99   LegendMM LegendMM LegendMM 99.62     LegendNANA
03:00 17.0 17.0 100   LegendMM LegendMM LegendMM 99.65     LegendNANA
04:00 17.1 17.0 99   LegendMM LegendMM LegendMM 99.62     LegendNANA
05:00 17.1 16.6 97   LegendMM LegendMM LegendMM 99.70     LegendNANA
06:00 16.5 15.7 95   LegendMM LegendMM LegendMM 99.77     LegendNANA
07:00 16.4 15.1 92   LegendMM LegendMM LegendMM 99.84     LegendNANA
08:00 16.8 15.0 89   LegendMM LegendMM LegendMM 99.93     LegendNANA
09:00 17.5 15.0 85   LegendMM LegendMM LegendMM 99.95     LegendNANA
10:00 19.3 15.6 79   LegendMM LegendMM LegendMM 99.95     LegendNANA
11:00 21.3 16.1 72   LegendMM LegendMM LegendMM 99.95 26   LegendNANA
12:00 23.1 16.2 65   LegendMM LegendMM LegendMM 99.92 28   LegendNANA
13:00 21.6 16.6 73   LegendMM LegendMM LegendMM 99.93 27   LegendNANA
14:00 22.0 16.3 70   LegendMM LegendMM LegendMM 99.92 27   LegendNANA
15:00 24.7 17.9 66   LegendMM LegendMM LegendMM 99.84 31   LegendNANA
16:00 24.9 17.4 63   LegendMM LegendMM LegendMM 99.84 30   LegendNANA
17:00 23.6 17.6 69   LegendMM LegendMM LegendMM 99.83 29   LegendNANA
18:00 22.4 18.2 77   LegendMM LegendMM LegendMM 99.87 29   LegendNANA
19:00 21.3 18.1 82   LegendMM LegendMM LegendMM 99.91 27   LegendNANA
20:00 20.5 17.7 84   LegendMM LegendMM LegendMM 99.94 26   LegendNANA
21:00 21.4 13.6 61   LegendMM LegendMM LegendMM 100.01 25   LegendNANA
22:00 20.6 13.1 62   LegendMM LegendMM LegendMM 100.05     LegendNANA
23:00 19.7 13.2 66   LegendMM LegendMM LegendMM 100.09     LegendNANA

Notes on Data Quality.

Legend

  • E = Estimated
  • M = Missing
  • NA = Not Available*
  • [empty] = Indicates an unobserved value
Date modified: